Regional Weather Roundup
Issued by NWS

Home | Current Version | Previous Version | Text Only | Print | Product List | Glossary Off
Versions: 1 2 3 4 5 6 7 8 9 10 11 12 13 14 15 16 17 18 19 20 21 22 23 24 25 26 27 28 29 30 31 32 33 34 35 36 37 38 39 40 41 42 43 44 45 46 47 48 49 50

000
ASUS43 KDMX 181606
RWRIA

WEATHER ROUNDUP FOR IOWA
NATIONAL WEATHER SERVICE DES MOINES IA
1000 AM CST WED JAN 18 2017

NOTE: "FAIR" INDICATES FEW OR NO CLOUDS BELOW 12,000 FEET WITH NO
SIGNIFICANT WEATHER AND/OR OBSTRUCTIONS TO VISIBILITY.

* - THESE STATIONS ARE NOT NWS STATIONS...THUS NOT UNDER NWS
QUALITY CONTROL.  THEY ALSO DO NOT REPORT WEATHER SUCH
AS PRECIPITATION OR FOG.

IAZ001>003-012>014-020>022-031>034-043>046-181700-
   NORTHWEST IOWA

CITY           SKY/WX    TMP DP  RH WIND       PRES   REMARKS
CARROLL *      SUNNY     36  34  93 SW17      30.00S WCI  25
CHEROKEE *     SUNNY     33  32  96 S6        29.96R WCI  28
DENISON *      SUNNY     34  30  86 S10       29.99S WCI  26
LE MARS *      CLOUDY    34  30  86 S9        29.95R WCI  26
ORANGE CITY *  CLOUDY    32  30  93 S8        29.92S WCI  25
SHELDON *      CLOUDY    32  32 100 S10       29.90S WCI  24
SIOUX CITY     SUNNY     36  31  82 SE7       29.94F WCI  30
SPENCER        CLOUDY    33  30  88 S14       29.93S WCI  23
STORM LAKE *   SUNNY     34  30  86 S12       29.95S WCI  25
$$

IAZ055>058-069>071-079>083-090>094-181700-
   SOUTHWEST IOWA

CITY           SKY/WX    TMP DP  RH WIND       PRES   REMARKS
ATLANTIC *     SUNNY     34  32  93 S10       30.05S WCI  26
AUDUBON *      SUNNY     34  30  86 CALM      30.04S
CLARINDA *     SUNNY     32  32 100 S7        30.11S WCI  26
COUNCIL BLFS * SUNNY     36  34  93 S8        30.03S WCI  29
CRESTON *      SUNNY     32  32 100 S12       30.10R WCI  23
HARLAN  *      SUNNY     32  32 100 S8        30.07S WCI  25
LAMONI         FOG       30  29  96 S10       30.12R VSB 1/4 WCI  21
RED OAK *      SUNNY     34  32  93 S7        30.08R WCI  28
SHENANDOAH *   SUNNY     36  32  87 S6        30.09S WCI  31
$$

IAZ047>049-059>061-072>074-084-181700-
   CENTRAL IOWA

CITY           SKY/WX    TMP DP  RH WIND       PRES   REMARKS
AMES           FOG       31  31 100 S14       30.07R VSB 1   WCI  21
ANKENY *       CLOUDY    32  30  93 S10G16    30.11S FOG     WCI  24
BOONE *        FOG       30  30 100 S12       30.04R VSB 1   WCI  21
CHARITON *     FOG       32  32 100 S9        30.11S VSB 3/4 WCI  24
DES MOINES     CLOUDY    32  31  96 S10       30.10S FOG     WCI  24
GRINNELL*      FOG       31  30  98 S15       30.10S VSB<1/4 WCI  20
KNOXVILLE *    CLOUDY    32  32 100 S10       30.11R FOG     WCI  24
MARSHALLTOWN   FOG       31  31 100 S15       30.07S VSB 1/4 WCI  20
NEWTON *       FOG       30  30 100 S10       30.10R VSB<1/4 WCI  21
PELLA *        CLOUDY    32  32  99 S8        30.14R FOG     WCI  25
PERRY *          N/A     33  32  98 S15       30.05S WCI  23
$$

IAZ004>006-015-016-023>025-035-036-181700-
   NORTH CENTRAL IOWA

CITY           SKY/WX    TMP DP  RH WIND       PRES   REMARKS
ALGONA *       CLOUDY    34  32  93 S16       29.95S WCI  23
CLARION *      CLOUDY    32  32 100 S14       30.00R FOG     WCI  22
ESTHERVILLE    CLOUDY    30  29  96 S13       29.91F WCI  20
FORT DODGE *   SUNNY     34  28  80 MISG      30.01R
MASON CITY     CLOUDY    30  30 100 S18       29.99S FOG     WCI  18
FOREST CITY *    N/A     32  32 100 S9        29.98S FOG     WCI  24
WEBSTER CITY * CLOUDY    32  32 100 S14       29.99F FOG     WCI  22
IOWA FALLS *   FOG       32  31  96 S6        30.03F VSB 1/4 WCI  26
$$

IAZ007>011-017>019-026>030-037>042-050>054-066-181700-
   NORTHEAST IOWA

CITY           SKY/WX    TMP DP  RH WIND       PRES   REMARKS
CEDAR RAPIDS   CLOUDY    31  29  92 S13       30.11S FOG     WCI  21
CHARLES CITY * FOG       30  30 100 S16       30.03R VSB<1/4 WCI  19
CLINTON *      CLOUDY    32  30  92 SW14      30.16R WCI  22
DECORAH *      CLOUDY    28  28 100 S9G16     30.02S FOG     WCI  20
DUBUQUE        CLOUDY    30  29  96 S23       30.07F FOG     WCI  17
MONTICELLO *   CLOUDY    32  30  93 S15       30.11S FOG     WCI  22
OELWEIN *      CLOUDY    30  30 100 S15       30.06S FOG     WCI  19
WATERLOO       CLOUDY    31  29  92 S12       30.06F FOG     WCI  22
$$

IAZ064-065-067-068-078-181700-
   EAST CENTRAL IOWA

CITY           SKY/WX    TMP DP  RH WIND       PRES   REMARKS
DAVENPORT      CLOUDY    32  29  88 SW10      30.16R WCI  24
IOWA CITY      CLOUDY    32  29  88 S10       30.16F WCI  24
MUSCATINE *    CLOUDY    34  30  86 SW9       30.18S WCI  26
QUAD CITIES    CLOUDY    35  30  82 SW9       30.17R WCI  28
$$

IAZ062-063-075>077-085>089-095>099-181700-
   SOUTHEAST IOWA

CITY           SKY/WX    TMP DP  RH WIND       PRES   REMARKS
BURLINGTON     CLOUDY    34  33  96 SW8       30.18S FOG     WCI  27
FAIRFIELD *    CLOUDY    34  32  93 S12       30.15S FOG     WCI  25
FORT MADISON * CLOUDY    36  34  93 SW5       30.19S FOG     WCI  32
KEOKUK *       CLOUDY    37  34  87 SW8       30.18S WCI  31
OSKALOOSA *    CLOUDY    32  32  99 S9        30.14S FOG     WCI  24
OTTUMWA        CLOUDY    33  31  92 S13       30.13F FOG     WCI  24
WASHINGTON *   CLOUDY    32  32 100 SW9       30.17R FOG     WCI  24
$$

ABBREVIATIONS USED IN REMARKS
   TC - TEMPERATURES IN CELSIUS
  WCI - WIND CHILL INDEX
   HX - HEAT INDEX
  VSB - VISIBILITY
$$




USA.gov is the U.S. government's official web portal to all federal, state and local government web resources and services.